Погода в Ренне

Франция     48°06′30″N   1°41′03″W
темп.,
°C
ветер,
м/с
пор.,
м/с
влажн.,
%
обл.,
%
осадки,
мм/ч
давл.,
гПа
погр.,
м
18 апреля, вс
вс1823:00+3ссв478729 0.0 1027111
02:00+1ссв34905 0.0 102659
05:000св338911 0.0 102539
08:000ссв23857 0.0 102662
11:00+8св3457100 0.0 1025587
14:00+11св3448100 0.0 10241219
17:00+13ссв345038 0.0 10231550
20:00+9ссв577583 0.0 1023294
19 апреля, пн
пн1923:00+4с369352 0.0 102499
02:00+2св33750 0.0 102430
05:00+1ссв22790 0.0 102210
08:00+2св22812 0.0 102219
11:00+10вюв23665 0.0 1022437
14:00+14ююв235499 0.1 10201738
17:00+13юв3367100 0.0 1019430
20:00+11вюв2374100 0.1 101969
20 апреля, вт
вт2023:00+10ююв1170100 0.0 101910
02:00+9ссв1166100 0.0 101810
05:00+9всв2264100 0.0 101817
08:00+9всв2267100 0.0 101820
11:00+11в2369100 0.0 1018227
14:00+14в225372 0.0 10181474
17:00+14св225577 0.2 10171412
20:00+11ссв477811 0.5 1017202
21 апреля, ср
ср2123:00+7ссв489225 0.0 1019123
02:00+5св358920 0.0 101974
05:00+4св33915 0.0 101940
08:00+5св34885 0.0 101979
11:00+12св346718 0.0 1020480
14:00+16всв345629 0.0 10191654
17:00+15всв3561100 0.1 1018325
20:00+14всв3573100 0.1 1018129
22 апреля, чт
чт2223:00+8св4119259 0.0 1020218
02:00+6св412962 0.0 1022249
05:00+5всв411960 0.0 1022225
08:00+5всв310940 0.0 1022223
11:00+12в68670 0.0 1022570
14:00+16в67580 0.0 10211112
17:00+17вюв66588 0.0 10201516
20:00+15в48730 0.0 1020331